T7FAB VIDP-VAAH

Flight info

Callsign T7FAB
Flight time 1h 5m
Altitude 38000
Route DUDUM6C DUDUM A474 NIKOT Q5 UUD UUD1A
Aircraft F2TH/M-SDE2E3FGHIJ1J3J4J5RWXYZ/LB1

Departure

Time 2026-04-27 07:38
Airport Indira Gandhi International Airport (VIDP)

Arrival

Time 2026-04-27 08:43
Airport Sardar Vallabh Patel International Airport (VAAH)
Time Latitude Longitude Altitude Speed Heading
2026-04-27 07:21 28.54914 77.09607 784 ft 0 kts 281°
2026-04-27 07:23 28.54912 77.09616 784 ft 7 kts 281°
2026-04-27 07:23 28.54910 77.09629 784 ft 7 kts 278°
2026-04-27 07:23 28.54910 77.09649 784 ft 7 kts 246°
2026-04-27 07:24 28.54919 77.09658 784 ft 7 kts 200°
2026-04-27 07:24 28.54915 77.09657 784 ft 0 kts 194°
2026-04-27 07:34 28.54897 77.09651 784 ft 5 kts 195°
2026-04-27 07:34 28.54850 77.09637 784 ft 7 kts 195°
2026-04-27 07:35 28.54786 77.09618 784 ft 11 kts 194°
2026-04-27 07:35 28.54720 77.09600 784 ft 7 kts 178°
2026-04-27 07:35 28.54696 77.09639 784 ft 10 kts 103°
2026-04-27 07:35 28.54675 77.09729 784 ft 14 kts 105°
2026-04-27 07:36 28.54648 77.09804 784 ft 9 kts 147°
2026-04-27 07:36 28.54594 77.09803 784 ft 8 kts 195°
2026-04-27 07:36 28.54515 77.09778 784 ft 15 kts 195°
2026-04-27 07:36 28.54437 77.09756 784 ft 10 kts 194°
2026-04-27 07:37 28.54397 77.09716 784 ft 5 kts 273°
2026-04-27 07:37 28.54404 77.09674 784 ft 9 kts 283°
2026-04-27 07:37 28.54434 77.09533 784 ft 38 kts 283°
2026-04-27 07:37 28.54556 77.08959 784 ft 111 kts 284°
2026-04-27 07:38 28.54804 77.07872 980 ft 163 kts 284°
2026-04-27 07:38 28.55098 77.06469 1622 ft 204 kts 283°
2026-04-27 07:38 28.55224 77.04780 2175 ft 219 kts 271°
2026-04-27 07:38 28.54851 77.03067 2709 ft 231 kts 252°
2026-04-27 07:39 28.54024 77.01511 3291 ft 233 kts 236°
2026-04-27 07:39 28.52790 77.00274 3875 ft 242 kts 219°
2026-04-27 07:39 28.51278 76.99468 4474 ft 241 kts 206°
2026-04-27 07:39 28.49691 76.98894 5062 ft 239 kts 201°
2026-04-27 07:40 28.48090 76.98426 5641 ft 235 kts 200°
2026-04-27 07:40 28.46486 76.97957 6116 ft 242 kts 200°
2026-04-27 07:40 28.44790 76.97454 6401 ft 263 kts 200°
2026-04-27 07:40 28.43594 76.97098 6587 ft 268 kts 200°
2026-04-27 07:41 28.41723 76.96541 6789 ft 275 kts 200°
2026-04-27 07:41 28.39840 76.95981 6898 ft 281 kts 200°
2026-04-27 07:41 28.37956 76.95420 6928 ft 283 kts 200°
2026-04-27 07:41 28.36043 76.94852 6935 ft 284 kts 200°
2026-04-27 07:42 28.34119 76.94281 6937 ft 284 kts 200°
2026-04-27 07:42 28.32279 76.93736 6937 ft 285 kts 200°
2026-04-27 07:42 28.30334 76.93160 6938 ft 285 kts 200°
2026-04-27 07:42 28.28439 76.92587 7035 ft 282 kts 201°
2026-04-27 07:43 28.26587 76.91881 7261 ft 278 kts 205°
2026-04-27 07:43 28.24801 76.91004 7514 ft 279 kts 210°
2026-04-27 07:43 28.23115 76.89962 7763 ft 279 kts 216°
2026-04-27 07:43 28.21535 76.88769 8054 ft 279 kts 220°
2026-04-27 07:44 28.19931 76.87396 8370 ft 283 kts 223°
2026-04-27 07:44 28.18361 76.86028 8716 ft 286 kts 224°
2026-04-27 07:44 28.16752 76.84606 9189 ft 299 kts 224°
2026-04-27 07:44 28.15081 76.83115 9692 ft 318 kts 224°
2026-04-27 07:45 28.13297 76.81516 10201 ft 336 kts 224°
2026-04-27 07:45 28.11449 76.79793 10753 ft 348 kts 220°
2026-04-27 07:45 28.09533 76.78044 11383 ft 358 kts 219°
2026-04-27 07:45 28.07624 76.76346 11994 ft 363 kts 218°
2026-04-27 07:46 28.05556 76.74539 12639 ft 367 kts 218°
2026-04-27 07:46 28.03507 76.72767 13269 ft 369 kts 218°
2026-04-27 07:46 28.01467 76.71011 13892 ft 371 kts 218°
2026-04-27 07:46 27.99430 76.69255 14513 ft 371 kts 218°
2026-04-27 07:47 27.97353 76.67454 15148 ft 371 kts 218°
2026-04-27 07:47 27.95331 76.65693 15709 ft 372 kts 218°
2026-04-27 07:47 27.93262 76.63883 16266 ft 378 kts 218°
2026-04-27 07:47 27.91159 76.62039 16821 ft 385 kts 218°
2026-04-27 07:48 27.89136 76.60262 17347 ft 390 kts 219°
2026-04-27 07:48 27.88215 76.59452 17585 ft 392 kts 219°
2026-04-27 07:48 27.86028 76.57529 18144 ft 395 kts 219°
2026-04-27 07:48 27.84053 76.55802 18644 ft 398 kts 218°
2026-04-27 07:49 27.81619 76.53722 19250 ft 401 kts 218°
2026-04-27 07:49 27.79339 76.51850 19806 ft 404 kts 217°
2026-04-27 07:49 27.77039 76.50036 20350 ft 406 kts 217°
2026-04-27 07:49 27.74844 76.48338 20832 ft 405 kts 217°
2026-04-27 07:50 27.72442 76.46508 21348 ft 405 kts 217°
2026-04-27 07:50 27.70064 76.44714 21857 ft 406 kts 217°
2026-04-27 07:50 27.67730 76.42965 22354 ft 407 kts 217°
2026-04-27 07:50 27.65360 76.41193 22857 ft 408 kts 218°
2026-04-27 07:51 27.62969 76.39409 23362 ft 410 kts 218°
2026-04-27 07:51 27.62246 76.38869 23514 ft 411 kts 218°
2026-04-27 07:51 27.59808 76.37049 24026 ft 413 kts 219°
2026-04-27 07:51 27.57479 76.35305 24513 ft 415 kts 219°
2026-04-27 07:52 27.55631 76.33921 24898 ft 418 kts 219°
2026-04-27 07:52 27.53881 76.32632 25258 ft 420 kts 219°
2026-04-27 07:52 27.51440 76.30883 25752 ft 424 kts 218°
2026-04-27 07:52 27.48835 76.29048 26273 ft 428 kts 218°
2026-04-27 07:53 27.46282 76.27268 26777 ft 432 kts 219°
2026-04-27 07:53 27.43719 76.25493 27277 ft 436 kts 219°
2026-04-27 07:53 27.41092 76.23683 27784 ft 439 kts 219°
2026-04-27 07:53 27.38476 76.21888 28286 ft 437 kts 219°
2026-04-27 07:54 27.35921 76.20148 28779 ft 431 kts 219°
2026-04-27 07:54 27.33380 76.18422 29274 ft 429 kts 219°
2026-04-27 07:54 27.30819 76.16681 29775 ft 428 kts 220°
2026-04-27 07:54 27.30023 76.16140 29931 ft 428 kts 220°
2026-04-27 07:55 27.27376 76.14336 30450 ft 430 kts 220°
2026-04-27 07:55 27.24805 76.12580 30952 ft 433 kts 220°
2026-04-27 07:55 27.23172 76.11423 31286 ft 424 kts 215°
2026-04-27 07:55 27.19895 76.09102 31955 ft 415 kts 214°
2026-04-27 07:56 27.18255 76.07959 32252 ft 420 kts 212°
2026-04-27 07:56 27.15780 76.06244 32732 ft 431 kts 211°
2026-04-27 07:56 27.13237 76.04506 33225 ft 440 kts 211°
2026-04-27 07:56 27.10463 76.02628 33754 ft 449 kts 211°
2026-04-27 07:57 27.07812 76.00841 34249 ft 456 kts 211°
2026-04-27 07:57 27.04983 75.98939 34769 ft 462 kts 211°
2026-04-27 07:57 27.02540 75.97296 35213 ft 466 kts 211°
2026-04-27 07:57 26.99517 75.95263 35757 ft 468 kts 211°
2026-04-27 07:58 26.97727 75.94058 36062 ft 468 kts 211°
2026-04-27 07:58 26.95597 75.92623 36385 ft 470 kts 211°
2026-04-27 07:58 26.93814 75.91421 36644 ft 470 kts 211°
2026-04-27 07:59 26.89775 75.88693 37193 ft 472 kts 211°
2026-04-27 07:59 26.86947 75.86782 37457 ft 475 kts 211°
2026-04-27 08:00 26.84136 75.84982 37663 ft 477 kts 208°
2026-04-27 08:00 26.81049 75.83297 37849 ft 479 kts 205°
2026-04-27 08:00 26.74865 75.80428 37782 ft 498 kts 204°
2026-04-27 08:01 26.68402 75.77646 37766 ft 507 kts 204°
2026-04-27 08:01 26.61617 75.74794 37768 ft 502 kts 204°
2026-04-27 08:02 26.54997 75.72031 37770 ft 492 kts 204°
2026-04-27 08:02 26.48634 75.69377 37782 ft 487 kts 204°
2026-04-27 08:03 26.42318 75.66736 37783 ft 485 kts 204°
2026-04-27 08:03 26.36136 75.64145 37786 ft 485 kts 204°
2026-04-27 08:04 26.30692 75.61860 37803 ft 484 kts 204°
2026-04-27 08:04 26.24799 75.59385 37810 ft 484 kts 204°
2026-04-27 08:05 26.20192 75.57447 37820 ft 484 kts 203°
2026-04-27 08:05 26.13947 75.54820 37813 ft 486 kts 203°
2026-04-27 08:06 26.11466 75.53777 37773 ft 487 kts 203°
2026-04-27 08:06 26.05133 75.51122 37769 ft 487 kts 203°
2026-04-27 08:07 25.98861 75.48497 37771 ft 487 kts 203°
2026-04-27 08:07 25.93552 75.46280 37771 ft 487 kts 203°
2026-04-27 08:08 25.87433 75.42751 37769 ft 480 kts 218°
2026-04-27 08:08 25.82776 75.37553 37553 ft 480 kts 231°
2026-04-27 08:09 25.80550 75.34706 37411 ft 482 kts 231°
2026-04-27 08:09 25.78307 75.31873 37246 ft 484 kts 230°
2026-04-27 08:09 25.76055 75.29052 37052 ft 488 kts 230°
2026-04-27 08:09 25.73899 75.26368 36863 ft 490 kts 230°
2026-04-27 08:10 25.71477 75.23368 36651 ft 492 kts 230°
2026-04-27 08:10 25.69174 75.20522 36449 ft 493 kts 230°
2026-04-27 08:10 25.67828 75.18861 36332 ft 494 kts 230°
2026-04-27 08:10 25.65516 75.16013 36131 ft 495 kts 229°
2026-04-27 08:11 25.63222 75.13192 35932 ft 496 kts 230°
2026-04-27 08:11 25.60978 75.10433 35737 ft 497 kts 230°
2026-04-27 08:11 25.58566 75.07471 35529 ft 498 kts 230°
2026-04-27 08:11 25.56245 75.04622 35328 ft 496 kts 229°
2026-04-27 08:12 25.53931 75.01784 35128 ft 494 kts 229°
2026-04-27 08:12 25.51619 74.98950 34926 ft 492 kts 229°
2026-04-27 08:12 25.49383 74.96210 34731 ft 491 kts 229°
2026-04-27 08:12 25.47063 74.93367 34528 ft 491 kts 229°
2026-04-27 08:13 25.44760 74.90545 34326 ft 490 kts 229°
2026-04-27 08:13 25.42442 74.87707 34123 ft 490 kts 229°
2026-04-27 08:13 25.40168 74.84924 33924 ft 489 kts 229°
2026-04-27 08:13 25.37958 74.82219 33730 ft 489 kts 229°
2026-04-27 08:14 25.35606 74.79344 33523 ft 488 kts 229°
2026-04-27 08:14 25.33324 74.76553 33322 ft 487 kts 229°
2026-04-27 08:14 25.32003 74.74939 33206 ft 486 kts 229°
2026-04-27 08:14 25.29472 74.71847 32982 ft 484 kts 229°
2026-04-27 08:15 25.27177 74.69048 32778 ft 482 kts 229°
2026-04-27 08:15 25.26179 74.67831 32689 ft 481 kts 229°
2026-04-27 08:15 25.23885 74.65034 32484 ft 479 kts 229°
2026-04-27 08:15 25.22456 74.63292 32354 ft 478 kts 229°
2026-04-27 08:16 25.19444 74.59617 32037 ft 472 kts 229°
2026-04-27 08:16 25.17224 74.56911 31824 ft 471 kts 229°
2026-04-27 08:16 25.15013 74.54219 31621 ft 471 kts 229°
2026-04-27 08:16 25.13548 74.52437 31487 ft 471 kts 229°
2026-04-27 08:17 25.11283 74.49688 31281 ft 471 kts 229°
2026-04-27 08:17 25.09116 74.47056 31084 ft 471 kts 229°
2026-04-27 08:17 25.06876 74.44333 30880 ft 471 kts 230°
2026-04-27 08:17 25.04833 74.41849 30694 ft 470 kts 230°
2026-04-27 08:18 25.02466 74.38974 30478 ft 470 kts 230°
2026-04-27 08:18 25.00306 74.36351 30281 ft 470 kts 230°
2026-04-27 08:18 24.98060 74.33622 30073 ft 469 kts 230°
2026-04-27 08:18 24.96146 74.31297 29892 ft 469 kts 230°
2026-04-27 08:19 24.93916 74.28592 29686 ft 468 kts 230°
2026-04-27 08:19 24.92693 74.27110 29574 ft 468 kts 230°
2026-04-27 08:19 24.90412 74.24343 29364 ft 467 kts 230°
2026-04-27 08:19 24.88195 74.21655 29161 ft 467 kts 230°
2026-04-27 08:20 24.86012 74.18993 28959 ft 468 kts 229°
2026-04-27 08:20 24.83871 74.16386 28763 ft 468 kts 229°
2026-04-27 08:20 24.81617 74.13653 28556 ft 467 kts 228°
2026-04-27 08:20 24.79431 74.11009 28355 ft 466 kts 228°
2026-04-27 08:21 24.76247 74.07165 28063 ft 465 kts 228°
2026-04-27 08:21 24.74153 74.04642 27870 ft 464 kts 228°
2026-04-27 08:21 24.71910 74.01941 27663 ft 463 kts 228°
2026-04-27 08:22 24.69721 73.99302 27459 ft 463 kts 228°
2026-04-27 08:22 24.67545 73.96681 27258 ft 462 kts 227°
2026-04-27 08:22 24.65398 73.94098 27059 ft 462 kts 227°
2026-04-27 08:22 24.63142 73.91494 26855 ft 461 kts 225°
2026-04-27 08:23 24.60793 73.89078 26658 ft 460 kts 222°
2026-04-27 08:23 24.58327 73.86866 26464 ft 459 kts 218°
2026-04-27 08:23 24.55721 73.84770 26266 ft 458 kts 216°
2026-04-27 08:23 24.53184 73.82762 26028 ft 456 kts 216°
2026-04-27 08:24 24.50555 73.80699 25732 ft 451 kts 216°
2026-04-27 08:24 24.48003 73.78708 25447 ft 446 kts 215°
2026-04-27 08:24 24.45468 73.76737 25188 ft 443 kts 215°
2026-04-27 08:24 24.44249 73.75790 25066 ft 441 kts 215°
2026-04-27 08:25 24.41732 73.73838 24813 ft 439 kts 215°
2026-04-27 08:25 24.39327 73.71975 24570 ft 436 kts 215°
2026-04-27 08:25 24.36743 73.69974 24308 ft 434 kts 215°
2026-04-27 08:25 24.34303 73.68084 24060 ft 432 kts 216°
2026-04-27 08:26 24.31832 73.66168 23807 ft 430 kts 216°
2026-04-27 08:26 24.29368 73.64256 23554 ft 428 kts 216°
2026-04-27 08:26 24.26999 73.62418 23309 ft 426 kts 216°
2026-04-27 08:26 24.24529 73.60500 23053 ft 425 kts 216°
2026-04-27 08:27 24.22096 73.58610 22801 ft 426 kts 216°
2026-04-27 08:27 24.19667 73.56723 22549 ft 425 kts 216°
2026-04-27 08:27 24.17241 73.54839 22297 ft 425 kts 216°
2026-04-27 08:27 24.14914 73.53031 22055 ft 424 kts 216°
2026-04-27 08:28 24.12403 73.51081 21793 ft 422 kts 216°
2026-04-27 08:28 24.10031 73.49240 21545 ft 421 kts 216°
2026-04-27 08:28 24.07714 73.47441 21302 ft 420 kts 216°
2026-04-27 08:28 24.05222 73.45506 21039 ft 418 kts 216°
2026-04-27 08:29 24.02984 73.43770 20803 ft 417 kts 216°
2026-04-27 08:29 24.00508 73.41850 20541 ft 416 kts 216°
2026-04-27 08:29 23.98131 73.40007 20288 ft 414 kts 216°
2026-04-27 08:29 23.96058 73.38401 20067 ft 413 kts 216°
2026-04-27 08:30 23.94505 73.37198 19901 ft 412 kts 216°
2026-04-27 08:30 23.92243 73.35445 19658 ft 408 kts 216°
2026-04-27 08:30 23.90082 73.33773 19420 ft 399 kts 216°
2026-04-27 08:30 23.87852 73.32044 19171 ft 394 kts 215°
2026-04-27 08:31 23.86168 73.30728 18981 ft 392 kts 215°
2026-04-27 08:31 23.84293 73.29271 18769 ft 390 kts 215°
2026-04-27 08:31 23.82086 73.27564 18519 ft 388 kts 215°
2026-04-27 08:31 23.79818 73.25815 18261 ft 387 kts 215°
2026-04-27 08:32 23.77616 73.24120 18009 ft 385 kts 215°
2026-04-27 08:32 23.75452 73.22458 17761 ft 382 kts 215°
2026-04-27 08:32 23.73280 73.20784 17509 ft 379 kts 216°
2026-04-27 08:32 23.71133 73.19124 17258 ft 376 kts 216°
2026-04-27 08:33 23.69053 73.17516 17013 ft 373 kts 216°
2026-04-27 08:33 23.66928 73.15863 16760 ft 370 kts 216°
2026-04-27 08:33 23.64866 73.14254 16512 ft 367 kts 216°
2026-04-27 08:33 23.62782 73.12626 16260 ft 365 kts 216°
2026-04-27 08:34 23.60758 73.11045 16013 ft 363 kts 216°
2026-04-27 08:34 23.58666 73.09412 15757 ft 361 kts 216°
2026-04-27 08:34 23.56645 73.07841 15509 ft 359 kts 216°
2026-04-27 08:34 23.54610 73.06262 15258 ft 357 kts 216°
2026-04-27 08:35 23.52694 73.04773 15019 ft 353 kts 216°
2026-04-27 08:35 23.51417 73.03784 14858 ft 350 kts 216°
2026-04-27 08:35 23.49456 73.02272 14610 ft 347 kts 216°
2026-04-27 08:35 23.47498 73.00754 14395 ft 345 kts 216°
2026-04-27 08:36 23.45511 72.99204 14113 ft 341 kts 216°
2026-04-27 08:36 23.43587 72.97698 13860 ft 335 kts 216°
2026-04-27 08:36 23.41710 72.96227 13608 ft 327 kts 217°
2026-04-27 08:36 23.39880 72.94790 13356 ft 321 kts 217°
2026-04-27 08:37 23.38269 72.93524 13131 ft 316 kts 217°
2026-04-27 08:37 23.36530 72.92157 12885 ft 313 kts 217°
2026-04-27 08:37 23.34767 72.90769 12633 ft 310 kts 217°
2026-04-27 08:37 23.33033 72.89402 12384 ft 309 kts 217°
2026-04-27 08:38 23.31271 72.88011 12120 ft 307 kts 217°
2026-04-27 08:38 23.29542 72.86620 11629 ft 310 kts 217°
2026-04-27 08:38 23.27863 72.85164 11123 ft 300 kts 220°
2026-04-27 08:38 23.26318 72.83639 10611 ft 286 kts 223°
2026-04-27 08:39 23.24934 72.82158 10115 ft 277 kts 225°
2026-04-27 08:39 23.23542 72.80615 9606 ft 269 kts 226°
2026-04-27 08:39 23.22231 72.79146 8847 ft 274 kts 227°
2026-04-27 08:39 23.20881 72.77640 8088 ft 276 kts 227°
2026-04-27 08:40 23.19514 72.76127 7339 ft 269 kts 228°
2026-04-27 08:40 23.18231 72.74727 6591 ft 258 kts 228°
2026-04-27 08:40 23.16972 72.73368 5836 ft 249 kts 229°
2026-04-27 08:40 23.15739 72.72053 5080 ft 243 kts 230°
2026-04-27 08:41 23.14582 72.70829 4344 ft 217 kts 230°
2026-04-27 08:41 23.13582 72.69774 3743 ft 183 kts 230°
2026-04-27 08:41 23.12749 72.68882 3177 ft 170 kts 231°
2026-04-27 08:41 23.11896 72.67950 2395 ft 164 kts 230°
2026-04-27 08:42 23.11107 72.67072 1510 ft 161 kts 229°
2026-04-27 08:42 23.10327 72.66289 900 ft 146 kts 227°
2026-04-27 08:42 23.09662 72.65556 509 ft 129 kts 227°
2026-04-27 08:42 23.09063 72.64902 281 ft 110 kts 227°
2026-04-27 08:43 23.08560 72.64359 196 ft 92 kts 226°
2026-04-27 08:43 23.08291 72.64064 196 ft 78 kts 226°
2026-04-27 08:43 23.08002 72.63743 196 ft 34 kts 222°
2026-04-27 08:43 23.07855 72.63588 196 ft 25 kts 224°
2026-04-27 08:44 23.07746 72.63472 196 ft 18 kts 224°
2026-04-27 08:44 23.07657 72.63377 196 ft 19 kts 223°
2026-04-27 08:44 23.07565 72.63278 196 ft 20 kts 225°
2026-04-27 08:44 23.07463 72.63167 196 ft 20 kts 225°
2026-04-27 08:45 23.07359 72.63055 196 ft 22 kts 224°
2026-04-27 08:45 23.07243 72.62930 196 ft 23 kts 226°
2026-04-27 08:45 23.07178 72.62805 196 ft 11 kts 257°
2026-04-27 08:45 23.07159 72.62708 196 ft 16 kts 258°
2026-04-27 08:46 23.07133 72.62579 196 ft 12 kts 253°
2026-04-27 08:46 23.07070 72.62495 196 ft 17 kts 224°
2026-04-27 08:46 23.06970 72.62388 196 ft 23 kts 225°
2026-04-27 08:46 23.06861 72.62272 196 ft 19 kts 224°
2026-04-27 08:47 23.06794 72.62202 196 ft 14 kts 224°
2026-04-27 08:47 23.06771 72.62178 196 ft 4 kts 224°
2026-04-27 08:47 23.06740 72.62144 196 ft 5 kts 236°
2026-04-27 08:47 23.06740 72.62103 196 ft 8 kts 297°
2026-04-27 08:48 23.06788 72.62053 196 ft 8 kts 325°
2026-04-27 08:48 23.06827 72.62038 196 ft 8 kts
2026-04-27 08:48 23.06832 72.62039 196 ft 0 kts 17°
2026-04-27 08:48 23.06848 72.62045 196 ft 6 kts 12°
2026-04-27 08:49 23.06874 72.62039 196 ft 4 kts 314°
2026-04-27 08:49 23.06901 72.62007 196 ft 5 kts 313°
2026-04-27 08:49 23.06933 72.61970 196 ft 0 kts 313°
2026-04-27 08:49 23.06950 72.61951 196 ft 7 kts 314°
2026-04-27 08:50 23.06995 72.61901 196 ft 8 kts 315°
2026-04-27 08:50 23.07025 72.61869 196 ft 4 kts 315°
2026-04-27 08:50 23.07043 72.61849 196 ft 3 kts 315°
2026-04-27 08:50 23.07043 72.61848 196 ft 0 kts 315°
2026-04-27 08:51 23.07047 72.61843 196 ft 1 kts 300°
2026-04-27 08:51 23.07048 72.61839 196 ft 1 kts 281°
2026-04-27 08:51 23.07044 72.61827 195 ft 2 kts 231°
2026-04-27 08:52 23.07032 72.61813 196 ft 3 kts 226°
2026-04-27 08:52 23.07018 72.61797 196 ft 2 kts 225°
2026-04-27 08:52 23.07015 72.61794 196 ft 0 kts 225°